Zurück zum Katalog

CZ-4C R/B

AktivPO
NORAD 52913·ROCKET BODY·🇨🇳 China

Gestartet Jun 27, 2022 von Jiuquan Satellite Launch Center

Loading…

Nächste Überflüge (nächste 24 Stunden)

TLE

AktuellSource: Space-Track

Epoche: Sep 14, 2026, 09:48 UTC

1 52913U 22069B   26257.40865220  .00005974  00000-0  17244-3 0  9994
2 52913  98.0119 246.8294 0043238 142.3581 218.0700 15.35184270233719

Verfolge CZ-4C R/B in Echtzeit mit AllMySat

Download on the App Store